Weather in Zhatay

Russia / Sakha (Yakutia) Republic     62°09′50″N   129°50′29″E
temp.,
°C
wind,
m/s
gust,
m/s
humid.,
%
clouds,
%
prec.,
mm/h
press.,
hPa
HPBL,
m
18 april, sun
sun1800:00−11wsw35957 0.0 100071
03:00−12wsw37935 0.0 100291
06:00−10wsw411865 0.0 1005287
09:00−6wsw587489 0.0 10091179
12:00−5wsw5764100 0.1 10111460
15:00−4w4666100 0.1 10131231
18:00−5w2480100 0.1 1015147
21:00−10w1191100 0.1 101710
19 april, mon
mon1900:00−14nw2295100 0.0 101711
03:00−13nnw2296100 0.0 101724
06:00−10nnw2495100 0.0 1016109
09:00−8nnw4689100 0.0 1016355
12:00−6n4790100 0.5 1015676
15:00−5nnw4791100 1.4 1015827
18:00−6nw4891100 0.8 1015809
21:00−7nw4887100 0.8 1016373
20 april, tue
tue2000:00−9wnw4990100 0.0 1015288
03:00−10wnw4990100 0.0 1015239
06:00−10wnw41090100 0.0 1014312
09:00−8wnw5882100 0.0 1014477
12:00−5wnw5672100 0.0 1014862
15:00−3wnw3468100 0.0 10141109
18:00−4wnw247939 0.1 1016125
21:00−12wnw2293100 0.1 101710
21 april, wed
wed2100:00−14wnw2295100 0.0 101911
03:00−15w1197100 0.0 10199
06:00−14wsw119792 0.0 102012
09:00−7sse118760 0.0 1020194
12:00−4ese218386 0.0 1020441
15:00−2e017999 0.0 1020370
18:00−1e1284100 0.0 102185
21:00−4ese2698100 0.4 1022131
22 april, thu
thu2200:00−7sse1210088 0.1 102344
03:00−8ese1199100 0.2 102330
06:00−6sw1296100 1.0 102491
09:00−2nw468273 1.4 1025725
12:00−1nw567691 0.0 10271082
15:00−1nw567399 0.1 10281340
18:00−3wnw597986 0.1 1030577
21:00−9wnw37895 0.1 1032130